CST,Max TemperatureF,Mean TemperatureF,Min TemperatureF,Max Dew PointF,MeanDew PointF,Min DewpointF,Max Humidity, Mean Humidity, Min Humidity, Max Sea Level PressureIn, Mean Sea Level PressureIn, Min Sea Level PressureIn, Max VisibilityMiles, Mean VisibilityMiles, Min VisibilityMiles, Max Wind SpeedMPH, Mean Wind SpeedMPH, Max Gust SpeedMPH,PrecipitationIn, CloudCover, Events, WindDirDegrees
2013-2-1,27,17,7,17,7,1,79,62,48,30.54,30.40,30.21,10,10,10,12,6,,0.00,2,,219
2013-2-2,44,34,25,34,25,18,95,70,57,30.22,30.15,30.07,10,10,10,17,9,25,0.00,5,Rain,261
2013-2-3,43,38,33,32,22,14,77,56,33,30.29,30.13,29.90,10,10,10,18,11,26,0.00,0,,276
2013-2-4,48,36,23,34,29,23,99,71,51,30.01,29.91,29.79,10,10,10,16,10,,0.00,1,,312
2013-2-5,56,38,21,34,29,22,99,74,40,30.13,30.01,29.94,10,10,10,16,6,20,0.00,1,,276
2013-2-6,61,46,30,38,34,29,99,66,40,30.15,30.05,29.95,10,10,10,15,7,22,0.00,2,,157
2013-2-7,48,40,33,49,43,32,100,94,69,30.19,29.96,29.89,10,8,2,20,10,25,0.55,8,Rain-Thunderstorm,257
2013-2-8,34,32,28,32,30,28,100,93,81,30.38,30.31,30.19,10,10,10,15,10,,0.00,7,,57
2013-2-9,46,36,27,39,33,28,100,87,56,30.30,30.07,29.85,10,10,9,16,10,22,0.04,6,Rain,149
2013-2-10,57,48,37,54,41,24,100,85,44,29.91,29.65,29.48,10,10,4,33,16,43,0.05,6,Rain,196
2013-2-11,47,39,31,28,26,23,79,62,42,30.17,30.10,29.94,10,10,10,15,10,17,0.00,0,,270
2013-2-12,39,32,25,31,28,23,99,81,62,30.19,30.09,29.98,10,10,10,7,3,,0.00,4,,1
2013-2-13,53,41,29,36,30,27,92,70,37,30.03,29.89,29.83,10,10,10,16,9,24,0.00,1,,242
2013-2-14,50,43,36,32,29,24,77,59,41,30.14,30.00,29.84,10,10,10,15,10,21,0.00,3,,291
2013-2-15,37,30,22,29,18,8,78,59,30,30.37,30.27,30.16,10,10,9,18,11,25,0.00,4,Snow,341
2013-2-16,35,26,17,22,18,14,83,64,49,30.35,30.25,30.14,10,10,10,15,6,18,0.00,4,,235
2013-2-17,58,42,27,32,27,20,78,53,36,30.12,29.95,29.74,10,10,10,15,9,22,0.00,1,,158
2013-2-18,56,42,28,54,39,19,100,80,52,30.06,29.68,29.52,10,9,2,31,18,38,0.22,6,Rain,260
2013-2-19,34,27,20,17,11,5,71,53,30,30.38,30.25,30.09,10,10,10,22,13,28,0.00,0,,310
2013-2-20,26,20,15,15,11,6,73,65,58,30.43,30.34,30.24,10,10,10,13,7,,0.00,4,,55
2013-2-21,28,24,21,28,22,14,100,92,64,30.25,29.96,29.80,10,3,0,21,10,30,0.72,8,Fog-Snow-Thunderstorm,91
2013-2-22,30,24,17,31,23,16,100,89,69,30.12,29.96,29.81,10,9,5,15,9,,0.00,6,Snow,253
2013-2-23,32,21,10,19,16,9,99,80,54,30.11,30.04,29.97,10,10,10,8,5,,0.00,0,,213
2013-2-24,43,27,11,28,22,11,99,75,50,30.09,30.01,29.96,10,10,10,10,6,,0.00,1,,105
2013-2-25,38,32,25,34,29,24,100,84,66,29.99,29.83,29.63,10,8,1,23,12,30,0.21,5,Rain-Snow,52
2013-2-26,33,32,31,34,32,32,100,100,99,29.83,29.64,29.44,10,6,0,24,18,29,0.57,8,Rain-Snow,341
2013-2-27,32,30,29,32,30,27,100,95,81,30.02,29.91,29.78,10,5,1,20,13,28,0.02,8,Rain-Snow,291
2013-2-28,33,30,26,28,26,25,93,85,75,30.18,30.13,30.02,10,10,10,18,13,23,0.00,8,,309